DW1274 Weather Reports


Display with metric or nautical units.
time (UTC)temp
F
wind
direction
speed
MPH
gust
MPH
rain 1hr
in
rain 24hr
in
rain mn
in
humidity
%
barometer
mb
20260904161701 87 89 2.0 6.0 0.00 0.07 0.00 74 1014.5
20260904161200 87 0 2.0 6.0 0.00 0.07 0.00 75 1014.6
20260904160700 86 239 2.0 5.0 0.00 0.07 0.00 76 1014.6
20260904160201 86 84 2.0 5.0 0.00 0.07 0.00 76 1014.7
20260904155701 86 133 1.0 4.0 0.00 0.07 0.00 78 1014.8
20260904155201 85 25 2.0 4.0 0.00 0.07 0.00 79 1014.8
20260904154702 85 10 2.0 4.0 0.00 0.07 0.00 79 1014.9
20260904154205 86 105 2.0 4.0 0.00 0.07 0.00 79 1014.9
20260904153702 86 220 1.0 4.0 0.00 0.07 0.00 79 1014.8
20260904153201 85 278 0.0 3.0 0.00 0.07 0.00 79 1014.7
20260904152701 85 3 1.0 4.0 0.00 0.07 0.00 80 1014.6
20260904152201 84 0 2.0 4.0 0.00 0.07 0.00 81 1014.7
20260904151700 84 167 2.0 4.0 0.00 0.07 0.00 81 1014.8
20260904150700 83 118 3.0 6.0 0.00 0.07 0.00 83 1014.6
20260904150201 84 102 3.0 6.0 0.00 0.07 0.00 83 1014.6
20260904145701 84 152 2.0 6.0 0.00 0.07 0.00 82 1014.6
20260904145201 84 0 1.0 4.0 0.00 0.07 0.00 81 1014.5
20260904143701 84 0 1.0 3.0 0.00 0.07 0.00 82 1014.5
20260904143202 84 218 0.0 3.0 0.00 0.07 0.00 83 1014.6
20260904142701 83 0 1.0 4.0 0.00 0.07 0.00 85 1014.6
20260904142202 83 114 1.0 4.0 0.00 0.07 0.00 85 1014.5
20260904141702 83 0 0.0 3.0 0.00 0.07 0.00 85 1014.5
20260904141202 83 0 1.0 4.0 0.00 0.07 0.00 85 1014.4
20260904140701 83 167 1.0 4.0 0.00 0.07 0.00 85 1014.4
20260904140204 82 200 1.0 4.0 0.00 0.07 0.00 86 1014.4
20260904135702 82 138 0.0 4.0 0.00 0.07 0.00 87 1014.3
20260904134718 82 0 1.0 4.0 0.00 0.07 0.00 87 1014.3
20260904134201 81 103 2.0 4.0 0.00 0.07 0.00 87 1014.4
20260904132702 81 135 2.0 6.0 0.00 0.07 0.00 87 1014.4
20260904132202 81 122 2.0 6.0 0.00 0.07 0.00 88 1014.4
20260904131201 81 36 2.0 4.0 0.00 0.07 0.00 91 1014.4
20260904130702 80 9 1.0 4.0 0.00 0.07 0.00 93 1014.4
20260904130202 79 39 1.0 4.0 0.00 0.07 0.00 94 1014.4
20260904125702 79 47 1.0 3.0 0.00 0.07 0.00 95 1014.4
20260904125205 78 67 1.0 3.0 0.00 0.07 0.00 94 1014.3
20260904124702 78 178 1.0 3.0 0.00 0.07 0.00 94 1014.4
20260904124205 78 42 0.0 2.0 0.00 0.07 0.00 94 1014.4
20260904123702 78 0 0.0 1.0 0.00 0.07 0.00 94 1014.3
20260904123203 77 196 0.0 1.0 0.00 0.07 0.00 94 1014.2
20260904122702 77 0 1.0 3.0 0.00 0.07 0.00 94 1014.1
20260904122202 77 0 1.0 3.0 0.00 0.07 0.00 94 1014.1
20260904121202 77 0 0.0 0.0 0.00 0.07 0.00 94 1014.0
20260904120702 77 0 0.0 0.0 0.00 0.07 0.00 94 1014.0
20260904120202 77 0 0.0 1.0 0.00 0.07 0.00 94 1014.0
20260904115702 77 209 0.0 2.0 0.00 0.07 0.00 94 1013.9
20260904115202 76 214 0.0 2.0 0.00 0.07 0.00 94 1013.9
20260904114702 76 0 0.0 0.0 0.00 0.07 0.00 94 1013.8
20260904114202 76 0 0.0 1.0 0.00 0.07 0.00 94 1013.9
20260904113702 76 0 1.0 2.0 0.00 0.07 0.00 94 1013.9
20260904113203 76 200 1.0 2.0 0.00 0.07 0.00 94 1013.9
20260904112702 76 195 0.0 2.0 0.00 0.07 0.00 94 1013.9
20260904112202 76 0 0.0 0.0 0.00 0.07 0.00 94 1013.8
20260904111702 76 0 0.0 0.0 0.00 0.07 0.00 94 1013.7
20260904111205 76 0 0.0 0.0 0.00 0.07 0.00 94 1013.7
20260904110702 76 0 0.0 0.0 0.00 0.07 0.00 94 1013.6
20260904105703 76 0 0.0 2.0 0.00 0.07 0.00 94 1013.5
20260904105202 76 0 0.0 2.0 0.00 0.07 0.00 94 1013.4
20260904104702 76 0 0.0 1.0 0.00 0.07 0.00 94 1013.4
20260904104202 76 0 0.0 2.0 0.00 0.07 0.00 94 1013.4
20260904103202 76 0 0.0 2.0 0.00 0.07 0.00 94 1013.6
20260904102156 76 0 0.0 1.0 0.00 0.07 0.00 94 1013.5
20260904101655 76 0 0.0 1.0 0.00 0.07 0.00 93 1013.4
20260904101155 76 0 0.0 0.0 0.00 0.07 0.00 94 1013.4
20260904100656 76 0 0.0 0.0 0.00 0.07 0.00 94 1013.4
20260904100156 76 0 0.0 0.0 0.00 0.07 0.00 93 1013.4
20260904095656 76 0 0.0 0.0 0.00 0.07 0.00 93 1013.3
20260904094656 76 0 0.0 0.0 0.00 0.07 0.00 93 1013.2
20260904093655 76 0 0.0 0.0 0.00 0.07 0.00 93 1013.2
20260904093156 76 0 0.0 1.0 0.00 0.07 0.00 93 1013.1
20260904092656 76 0 0.0 2.0 0.00 0.07 0.00 93 1013.1
20260904092156 76 274 0.0 2.0 0.00 0.07 0.00 93 1013.1
20260904091156 76 0 0.0 1.0 0.00 0.07 0.00 93 1013.1
20260904090154 76 0 0.0 0.0 0.00 0.07 0.00 93 1013.1
20260904084643 77 8 1.0 2.0 0.00 0.07 0.00 92 1013.0
20260904084143 77 0 0.0 0.0 0.00 0.07 0.00 92 1013.0
20260904083629 77 0 0.0 0.0 0.00 0.07 0.00 92 1013.0
20260904083129 77 0 0.0 0.0 0.00 0.07 0.00 92 1013.0
20260904082629 77 0 0.0 1.0 0.00 0.07 0.00 92 1012.9
20260904082129 77 0 0.0 1.0 0.00 0.07 0.00 92 1012.9
20260904081628 77 0 0.0 1.0 0.00 0.07 0.00 92 1013.0
20260904081129 77 107 0.0 1.0 0.00 0.07 0.00 92 1013.0
20260904080629 77 0 0.0 0.0 0.00 0.07 0.00 92 1013.0
20260904080130 77 0 0.0 1.0 0.00 0.07 0.00 92 1013.0
20260904075629 77 0 0.0 1.0 0.00 0.07 0.00 92 1012.9
20260904075130 77 109 1.0 2.0 0.00 0.07 0.00 92 1013.0
20260904074629 77 0 1.0 2.0 0.00 0.07 0.00 92 1012.9
20260904074129 77 0 0.0 2.0 0.00 0.07 0.00 92 1012.9
20260904073629 77 0 1.0 3.0 0.00 0.07 0.00 92 1012.9
20260904073115 77 0 1.0 3.0 0.00 0.07 0.00 92 1012.9
20260904072619 77 86 1.0 2.0 0.00 0.07 0.00 92 1012.8
20260904072115 77 98 0.0 1.0 0.00 0.07 0.00 92 1012.9
20260904071615 77 0 0.0 1.0 0.00 0.07 0.00 92 1012.9
20260904070602 77 0 0.0 0.0 0.00 0.07 0.00 92 1012.9
20260904065600 77 0 0.0 0.0 0.00 0.07 0.00 92 1013.0
20260904065101 77 0 0.0 0.0 0.00 0.07 0.00 92 1013.0
20260904064603 78 0 0.0 0.0 0.00 0.07 0.00 92 1013.0
20260904064100 78 0 0.0 3.0 0.00 0.07 0.00 92 1013.0
20260904063601 78 0 1.0 3.0 0.00 0.07 0.00 92 1013.0
20260904063106 78 26 2.0 4.0 0.00 0.07 0.00 92 1013.0
20260904062600 78 39 1.0 4.0 0.00 0.07 0.00 92 1013.2
20260904062100 78 0 0.0 1.0 0.00 0.07 0.00 92 1013.2
20260904061559 78 0 0.0 2.0 0.00 0.07 0.00 92 1013.3
20260904061100 78 187 0.0 2.0 0.00 0.07 0.00 92 1013.3
20260904060559 78 87 0.0 1.0 0.00 0.07 0.00 91 1013.4
20260904060059 78 0 0.0 0.0 0.00 0.07 0.00 91 1013.4
20260904055559 78 0 0.0 0.0 0.00 0.07 0.00 91 1013.5
20260904055100 78 0 0.0 0.0 0.00 0.07 0.00 91 1013.6
20260904054600 78 0 0.0 0.0 0.00 0.07 0.00 91 1013.6
20260904052547 78 0 1.0 3.0 0.00 0.07 0.00 91 1013.8
20260904052046 78 35 1.0 3.0 0.00 0.07 0.00 91 1013.8
20260904051046 78 0 0.0 2.0 0.00 0.07 0.00 91 1013.9
20260904050547 78 0 0.0 2.0 0.00 0.07 0.00 91 1013.9
20260904045547 78 0 0.0 2.0 0.00 0.07 0.00 91 1013.9
20260904045032 78 98 0.0 1.0 0.00 0.07 0.00 91 1014.0
20260904044531 78 177 0.0 3.0 0.00 0.07 0.00 91 1013.9
20260904044035 78 204 1.0 4.0 0.00 0.07 0.00 91 1013.8
20260904043530 78 97 1.0 4.0 0.00 0.07 0.00 91 1013.9
20260904042530 78 0 1.0 3.0 0.00 0.07 0.00 90 1014.0
20260904042030 78 11 1.0 2.0 0.00 0.07 0.00 90 1014.0
20260904041530 78 0 0.0 2.0 0.00 0.07 0.00 90 1014.0
20260904040530 78 0 0.0 2.0 0.00 0.07 0.00 89 1013.9
20260904040038 78 14 0.0 2.0 0.00 0.07 0.00 89 1013.9
20260904035530 78 0 0.0 0.0 0.00 0.07 0.07 89 1014.0
20260904035030 78 0 0.0 3.0 0.00 0.07 0.07 89 1014.0
20260904034530 78 43 0.0 3.0 0.00 0.07 0.07 89 1014.0
20260904034030 78 0 0.0 2.0 0.00 0.07 0.07 88 1014.0
20260904033530 78 0 0.0 2.0 0.00 0.07 0.07 88 1013.9
20260904033031 78 100 0.0 2.0 0.00 0.07 0.07 88 1013.9
20260904032530 78 155 0.0 2.0 0.00 0.07 0.07 88 1013.9
20260904032030 78 88 0.0 2.0 0.00 0.07 0.07 88 1013.8
20260904031530 78 0 1.0 3.0 0.00 0.07 0.07 88 1013.8
20260904031030 78 154 2.0 3.0 0.00 0.07 0.07 88 1013.8
20260904030530 78 143 1.0 3.0 0.00 0.07 0.07 88 1013.8
20260904030031 78 108 1.0 2.0 0.00 0.07 0.07 88 1013.8
20260904025530 78 0 1.0 2.0 0.00 0.07 0.07 88 1013.9
20260904025030 79 0 2.0 2.0 0.00 0.07 0.07 87 1013.8
20260904024530 79 136 2.0 3.0 0.00 0.07 0.07 87 1013.7
20260904024030 79 120 1.0 3.0 0.00 0.07 0.07 87 1013.7
20260904023530 79 190 0.0 1.0 0.00 0.07 0.07 87 1013.7
20260904023031 79 0 0.0 2.0 0.00 0.07 0.07 87 1013.7
20260904022531 79 0 0.0 4.0 0.00 0.07 0.07 87 1013.7
20260904022030 79 0 1.0 4.0 0.00 0.07 0.07 87 1013.8
20260904021530 79 0 0.0 3.0 0.00 0.07 0.07 87 1013.7
20260904021030 79 0 0.0 2.0 0.00 0.07 0.07 87 1013.6
20260904020529 79 0 0.0 2.0 0.00 0.07 0.07 87 1013.6
20260904015530 79 0 0.0 3.0 0.00 0.07 0.07 86 1013.7
20260904015029 80 0 1.0 5.0 0.00 0.07 0.07 86 1013.6
20260904014530 80 43 1.0 5.0 0.00 0.07 0.07 86 1013.5
20260904014030 80 11 1.0 3.0 0.00 0.07 0.07 86 1013.4
20260904013530 80 71 1.0 3.0 0.00 0.07 0.07 86 1013.4
20260904013030 80 44 0.0 3.0 0.00 0.07 0.07 86 1013.4
20260904012530 80 0 0.0 3.0 0.00 0.07 0.07 86 1013.5
20260904012034 80 42 1.0 5.0 0.00 0.07 0.07 86 1013.5
20260904011530 80 0 1.0 5.0 0.00 0.07 0.07 86 1013.4
20260904010522 80 41 0.0 3.0 0.00 0.07 0.07 85 1013.5
20260904010021 80 0 0.0 1.0 0.00 0.07 0.07 85 1013.5
20260904005521 80 0 1.0 4.0 0.00 0.07 0.07 85 1013.4
20260904005021 80 0 2.0 5.0 0.00 0.07 0.07 85 1013.4
20260904004507 80 26 1.0 5.0 0.00 0.07 0.07 85 1013.3
20260904004007 80 14 0.0 1.0 0.00 0.07 0.07 85 1013.3
20260904003506 81 0 0.0 4.0 0.00 0.07 0.07 85 1013.2
20260904003006 81 0 1.0 4.0 0.00 0.07 0.07 84 1013.2
20260904002507 81 0 1.0 3.0 0.00 0.07 0.07 84 1013.2
20260904002006 81 0 0.0 3.0 0.00 0.07 0.07 84 1013.3
20260904001005 81 0 1.0 4.0 0.00 0.07 0.07 84 1013.2
20260904000504 82 0 1.0 4.0 0.00 0.07 0.07 83 1013.2
20260904000004 82 98 2.0 4.0 0.00 0.07 0.07 83 1013.2
20260903235508 82 0 2.0 4.0 0.00 0.07 0.07 83 1013.1
20260903235005 82 48 1.0 4.0 0.00 0.07 0.07 82 1013.1
20260903234505 82 145 1.0 4.0 0.00 0.07 0.07 82 1013.0
20260903234006 82 70 2.0 4.0 0.00 0.07 0.07 82 1012.9
20260903233506 83 132 3.0 6.0 0.00 0.07 0.07 81 1012.9
20260903232505 83 129 3.0 6.0 0.00 0.07 0.07 80 1012.8
20260903232005 83 53 2.0 6.0 0.00 0.07 0.07 80 1012.8
20260903231506 83 119 2.0 5.0 0.00 0.07 0.07 80 1012.7
20260903231005 83 0 1.0 4.0 0.00 0.07 0.07 80 1012.7
20260903230505 83 0 2.0 4.0 0.00 0.07 0.07 80 1012.6
20260903230011 83 170 2.0 4.0 0.00 0.07 0.07 80 1012.6
20260903225502 83 159 2.0 4.0 0.00 0.07 0.07 80 1012.5
20260903224501 84 68 2.0 6.0 0.00 0.07 0.07 81 1012.5
20260903224003 84 52 2.0 6.0 0.00 0.07 0.07 80 1012.5
20260903223502 84 60 2.0 6.0 0.00 0.07 0.07 80 1012.4
20260903223001 84 46 2.0 5.0 0.00 0.07 0.07 81 1012.4
20260903222001 84 65 2.0 6.0 0.00 0.07 0.07 82 1012.4
20260903221501 84 38 2.0 6.0 0.00 0.07 0.07 82 1012.4
20260903221001 84 42 2.0 6.0 0.00 0.07 0.07 81 1012.3
20260903220506 84 93 3.0 7.0 0.00 0.07 0.07 81 1012.3
20260903220001 84 288 3.0 7.0 0.00 0.07 0.07 81 1012.2
20260903215501 84 104 3.0 7.0 0.00 0.07 0.07 81 1012.2
20260903214501 84 38 3.0 8.0 0.00 0.07 0.07 80 1012.3
20260903214001 85 27 2.0 8.0 0.00 0.07 0.07 79 1012.3
20260903213501 85 29 1.0 5.0 0.00 0.07 0.07 79 1012.2
20260903212502 85 123 3.0 9.0 0.00 0.08 0.07 79 1012.2
20260903212002 85 21 3.0 9.0 0.00 0.11 0.07 79 1012.2
20260903211502 85 74 3.0 10.0 0.00 0.15 0.07 79 1012.2
20260903211001 84 9 3.0 10.0 0.00 0.23 0.07 79 1012.2
20260903210501 85 28 4.0 10.0 0.00 0.25 0.07 79 1012.1
20260903210000 85 61 4.0 10.0 0.00 0.25 0.07 79 1012.1
20260903205501 85 87 4.0 10.0 0.00 0.25 0.07 77 1012.1
20260903204501 86 94 4.0 10.0 0.00 0.25 0.07 76 1012.3
20260903204001 85 48 4.0 9.0 0.00 0.25 0.07 76 1012.4
20260903203001 85 92 4.0 10.0 0.00 0.25 0.07 77 1012.6
20260903202502 85 60 4.0 9.0 0.00 0.25 0.07 77 1012.6
20260903202003 85 155 4.0 9.0 0.00 0.25 0.07 76 1012.6
20260903201504 85 83 4.0 9.0 0.00 0.25 0.07 76 1012.7
20260903201002 85 143 5.0 9.0 0.00 0.25 0.07 77 1012.8
20260903200502 85 138 5.0 9.0 0.00 0.25 0.07 78 1012.9
20260903200001 85 122 3.0 9.0 0.00 0.25 0.07 79 1013.0
20260903195502 85 15 3.0 7.0 0.00 0.25 0.07 79 1013.1
20260903195002 84 133 3.0 9.0 0.00 0.25 0.07 80 1013.1
20260903194502 84 123 3.0 11.0 0.00 0.25 0.07 79 1013.2
20260903194002 84 30 3.0 11.0 0.00 0.25 0.07 80 1013.2
20260903193502 84 345 4.0 9.0 0.00 0.25 0.07 80 1013.2
20260903193006 84 19 4.0 9.0 0.00 0.25 0.07 81 1013.2
20260903192001 84 43 3.0 8.0 0.00 0.25 0.07 84 1013.2
20260903191501 83 33 2.0 8.0 0.00 0.25 0.07 83 1013.4
20260903191001 83 60 3.0 7.0 0.00 0.25 0.07 84 1013.4
20260903190502 83 38 3.0 7.0 0.00 0.25 0.07 85 1013.4
20260903190001 82 141 3.0 6.0 0.00 0.25 0.07 85 1013.4
20260903185502 82 76 4.0 8.0 0.00 0.25 0.07 86 1013.4
20260903185001 81 76 4.0 9.0 0.00 0.25 0.07 86 1013.5
20260903184502 81 133 3.0 9.0 0.00 0.25 0.07 86 1013.5
20260903184001 81 123 2.0 6.0 0.00 0.25 0.07 87 1013.6
20260903183502 81 49 3.0 6.0 0.00 0.25 0.07 87 1013.6
20260903183000 80 49 3.0 6.0 0.00 0.25 0.07 88 1013.7
20260903181501 80 0 3.0 7.0 0.00 0.25 0.07 88 1014.2
20260903181000 80 78 3.0 7.0 0.05 0.25 0.07 88 1014.2
20260903180501 80 56 3.0 7.0 0.06 0.25 0.07 88 1014.3
20260903180000 80 31 3.0 7.0 0.06 0.25 0.07 88 1014.3
20260903175501 79 53 3.0 7.0 0.06 0.25 0.07 89 1014.3
20260903175002 79 22 3.0 7.0 0.06 0.25 0.07 89 1014.3
20260903174002 79 43 2.0 5.0 0.07 0.25 0.07 90 1014.3
20260903173501 79 91 3.0 5.0 0.07 0.25 0.07 90 1014.4
20260903173000 79 49 2.0 5.0 0.07 0.25 0.07 90 1014.5
20260903172003 80 141 4.0 7.0 0.07 0.25 0.07 89 1014.8
20260903171001 81 112 1.0 4.0 0.02 0.20 0.03 87 1014.8
20260903170502 82 0 1.0 4.0 0.00 0.19 0.01 87 1014.7
20260903170002 82 97 1.0 5.0 0.00 0.19 0.01 86 1014.7
20260903165503 82 156 2.0 7.0 0.00 0.19 0.01 85 1014.8
20260903164502 82 102 4.0 7.0 0.01 0.19 0.01 83 1014.9
20260903164002 82 115 4.0 8.0 0.00 0.18 0.01 82 1015.0
20260903163502 83 126 5.0 8.0 0.00 0.18 0.01 82 1015.0
20260903163000 83 110 4.0 7.0 0.00 0.18 0.01 82 1015.0